EHI
0 2 7 13 15 14 12 9 7 6 6 5 3 1 0 1 1 2 2 1 0 0 0 0 0 0 0 0 0 0 0 0 0 0 0 0 0 0 0 0 0 0 0
0 1 7 13 15 14 12 9 6 5 5 4 2 1 0 1 2 2 2 1 0 0 0 0 0 0 0 0 0 0 0 0 0 0 0 0 0 0 0 0 0 0 0
0 1 6 12 15 13 11 7 4 2 2 2 1 0 0 1 1 1 1 0 0 0 0 0 0 0 0 0 0 0 0 0 0 0 0 0 0 0 0 0 0 0 0
0 1 6 12 14 12 10 6 3 1 0 0 0 0 0 0 0 0 0 0 0 0 0 0 0 0 0 0 0 0 0 0 0 0 0 0 0 0 0 0 0 0 0
0 1 6 12 13 10 8 6 3 2 1 0 0 0 0 0 0 0 0 0 0 0 0 0 0 0 0 0 0 0 0 0 0 0 0 0 0 0 0 0 0 0 0
0 1 6 12 13 10 7 5 3 2 1 0 0 0 0 0 0 0 0 0 0 0 0 0 0 0 0 0 0 0 0 0 0 0 0 0 0 0 0 0 0 0 0
0 1 5 11 12 8 6 4 2 1 0 0 0 0 0 0 0 0 0 0 0 0 0 0 0 0 0 0 0 0 0 0 0 0 0 0 0 0 0 0 0 0 0
0 0 4 9 10 7 5 3 1 0 0 0 0 0 0 0 0 0 0 0 0 0 0 0 0 0 0 0 0 0 0 0 0 0 0 0 0 0 0 0 0 0 0
0 0 2 5 6 5 3 1 0 0 0 0 0 0 0 0 0 0 0 0 0 0 0 0 0 0 0 0 0 0 0 0 0 0 0 0 0 0 0 0 0 0 0
0 0 1 2 2 1 1 0 0 0 0 0 0 0 0 0 0 0 0 0 0 0 0 0 0 0 0 0 0 0 0 0 0 0 0 0 0 0 0 0 0 0 0
0 0 0 0 0 0 0 0 0 0 0 0 0 0 0 0 0 0 0 0 0 0 0 0 0 0 0 0 0 0 0 0 0 0 0 0 0 0 0 0 0 0 0
0 0 0 1 1 0 0 0 0 0 0 0 0 0 0 0 0 0 0 0 0 0 0 0 0 0 0 0 0 0 0 0 0 0 0 0 0 0 0 0 0 0 0
0 0 0 1 1 0 0 0 0 0 0 0 0 0 0 0 0 0 0 0 0 0 0 0 0 0 0 0 0 0 0 0 0 0 0 0 0 0 0 0 0 0 0
1 0 0 1 1 0 0 0 0 0 0 0 0 0 0 0 0 0 0 0 0 0 0 0 0 0 0 0 0 0 0 0 0 0 0 0 0 0 0 0 0 0 0
2 1 0 0 0 0 0 0 0 0 0 0 0 0 0 0 0 0 0 0 0 0 0 0 0 0 0 0 0 0 0 0 0 0 0 0 0 0 0 0 0 0 0
3 2 1 0 0 0 0 0 0 0 0 0 0 0 0 0 0 0 0 0 0 0 0 0 0 0 0 0 0 0 0 0 0 0 0 0 0 0 0 0 0 0 0
3 3 2 1 0 0 0 0 0 0 0 0 0 0 0 0 0 0 0 0 0 0 0 0 0 0 0 0 0 0 0 0 0 0 0 0 0 0 0 0 0 0 0
4 3 3 2 1 0 0 0 0 0 0 0 0 0 0 0 0 0 0 0 0 0 0 0 0 0 0 0 0 0 0 0 0 0 0 0 0 0 0 0 0 0 0
5 4 3 2 1 0 0 0 0 0 0 0 0 0 0 0 0 0 0 0 0 0 0 0 0 0 0 0 0 0 0 0 0 0 0 0 0 0 0 0 0 0 0
5 4 3 3 1 0 0 0 0 0 0 0 0 0 0 0 0 0 0 0 0 0 0 0 0 0 0 0 0 0 0 0 0 0 0 0 0 0 0 0 0 0 0
5 5 4 3 2 1 0 0 0 0 0 0 0 0 0 0 0 0 0 0 0 0 0 0 0 0 0 0 0 0 0 0 0 0 0 0 0 0 0 0 0 0 0
4 5 4 3 3 1 0 0 0 0 0 0 0 0 0 0 0 0 0 0 0 0 0 0 0 0 0 0 0 0 0 0 0 0 0 0 0 0 0 0 0 0 0
4 4 5 4 3 2 1 0 0 0 0 0 0 0 0 0 0 0 0 0 0 0 0 0 0 0 0 0 0 0 0 0 0 0 0 0 0 0 0 0 0 0 0
3 4 5 4 3 3 2 1 0 0 0 0 0 0 0 0 0 0 0 0 0 0 0 0 0 0 0 0 0 0 0 0 0 0 0 0 0 0 0 0 0 0 0
2 3 5 4 4 4 3 1 0 0 0 0 0 0 0 0 0 0 0 0 0 0 0 0 0 0 0 0 0 0 0 0 0 0 0 0 0 0 0 0 0 0 0
1 3 5 5 4 5 4 1 0 0 0 0 0 0 0 0 0 0 0 0 0 0 0 0 0 0 0 0 0 0 0 0 0 0 0 0 0 0 0 0 0 0 0
Wind_Speed
11 13 23 22 22 21 21 20 19 19 19 18 18 18 18 17 17 17 17 16 16 16 17 17 17 16 16 16 16 16 16 16 16 16 16 15 15 15 15 14 13 8 15
15 17 24 23 22 22 21 20 20 19 19 19 18 18 18 17 17 17 17 16 16 16 16 16 16 16 16 15 15 15 15 15 15 15 15 13 14 15 15 14 13 9 14
18 17 21 24 23 22 22 21 20 20 19 19 18 18 18 17 17 16 16 16 16 16 16 16 15 15 15 14 14 15 15 15 16 15 13 6 8 14 15 14 14 14 14
19 16 17 24 23 23 22 22 21 20 20 19 19 18 18 17 17 16 16 16 16 16 15 15 15 14 14 14 14 14 15 16 16 14 7 6 6 13 14 14 14 14 15
17 15 18 24 24 23 23 22 21 20 20 19 19 18 18 17 17 16 16 15 15 15 15 14 14 14 13 13 13 14 15 16 15 10 6 5 5 12 14 14 14 14 14
15 14 18 24 24 23 23 22 21 21 20 19 19 18 17 17 17 16 15 15 15 14 14 14 13 13 13 13 13 14 15 15 11 6 5 5 4 11 13 13 13 13 13
15 13 17 24 24 23 23 22 21 21 20 19 19 18 17 17 17 16 15 15 15 14 14 14 13 13 12 12 13 13 14 14 7 5 5 4 5 12 13 13 13 13 14
16 14 16 23 23 23 23 22 21 21 20 20 19 18 18 17 16 16 15 14 14 14 13 13 13 12 12 12 12 12 12 11 7 5 4 3 8 11 12 12 12 13 13
15 13 12 15 17 21 21 21 21 20 20 20 19 18 17 17 16 16 15 14 14 13 13 12 12 11 11 11 11 11 11 11 5 3 4 3 8 11 12 11 11 12 12
12 12 11 12 12 12 14 18 19 19 19 19 18 16 16 16 15 15 13 14 13 13 12 11 11 10 10 9 10 10 11 9 4 4 2 3 9 10 11 10 10 11 11
14 11 12 11 11 10 10 14 15 16 16 16 14 16 12 7 7 8 10 12 13 12 11 10 9 8 7 7 8 9 8 3 3 2 1 6 8 9 9 9 9 10 10
19 16 13 13 12 11 10 9 8 8 9 8 7 8 6 5 5 7 10 11 12 11 10 9 8 6 4 3 4 6 3 3 3 2 2 7 7 8 8 8 8 8 9
20 18 15 14 13 11 8 8 5 5 6 7 8 8 6 5 4 4 3 5 5 6 3 4 3 2 2 2 2 2 3 3 2 1 2 6 6 6 6 7 7 7 7
18 18 16 15 13 11 9 8 7 6 6 6 7 9 6 4 4 4 3 3 3 2 2 2 1 1 1 2 3 3 3 2 2 1 1 5 5 4 5 5 5 5 6
18 18 18 16 15 13 10 8 8 8 7 7 7 7 8 6 6 5 4 3 3 2 3 2 2 2 2 2 3 4 3 3 3 2 1 3 4 3 3 3 4 4 4
19 19 18 18 16 14 11 10 9 8 8 8 7 8 9 7 6 6 5 4 4 3 3 3 3 3 2 2 3 3 3 2 2 2 1 1 2 2 2 2 2 2 2
20 19 19 19 17 16 14 12 10 8 8 8 8 9 9 8 8 7 6 5 4 4 4 3 3 2 2 2 2 2 2 2 2 2 2 1 0 1 1 1 0 1 1
18 19 19 17 18 17 14 12 9 9 9 8 8 8 10 10 9 7 6 5 5 4 4 3 3 3 2 2 1 1 1 1 2 2 2 2 1 1 2 2 2 2 3
19 20 20 19 20 18 15 12 10 10 10 8 8 8 10 11 10 8 6 5 6 4 4 4 3 3 3 2 1 1 1 1 2 2 2 2 2 2 2 3 3 4 4
18 18 19 18 18 16 12 9 8 9 9 8 9 9 11 10 10 8 6 7 7 5 4 4 4 3 2 3 1 0 1 1 1 2 3 2 2 3 2 2 2 3 5
17 18 19 18 18 15 13 13 12 12 10 9 9 11 12 11 11 9 7 7 7 6 6 6 4 3 2 2 2 1 3 2 1 2 2 2 2 2 2 3 2 2 3
21 21 21 20 20 19 15 13 10 8 7 7 7 9 12 12 12 10 9 8 7 6 6 6 4 3 2 3 3 2 2 4 3 1 1 2 2 2 2 3 3 3 3
21 23 21 22 21 20 16 9 7 5 4 6 9 10 11 12 12 10 10 9 8 7 7 7 6 6 4 2 2 4 3 3 3 3 2 2 2 2 3 2 3 3 3
22 22 22 23 22 20 17 15 16 13 12 13 10 9 10 12 12 11 11 10 9 7 7 7 6 5 6 4 2 2 2 3 2 2 3 2 2 3 3 3 3 3 3
20 20 20 21 21 20 19 19 18 14 11 6 7 9 10 10 11 12 11 10 10 8 8 8 7 6 5 5 4 3 2 1 2 2 3 3 3 3 3 3 3 3 3
17 18 18 20 21 21 21 20 20 18 13 11 11 12 10 8 9 12 11 11 10 9 9 8 8 8 6 5 4 3 3 3 3 3 3 3 3 3 2 2 2 2 2
Wind_Direction
167 168 160 155 151 146 142 139 136 133 130 127 124 121 118 115 114 112 109 107 103 100 97 95 94 93 92 91 90 88 84 81 76 74 71 71 72 69 66 63 58 48 55
155 163 158 155 152 147 144 140 137 134 132 130 127 124 121 118 116 114 111 108 105 102 100 97 96 95 95 94 93 89 85 83 80 75 67 62 70 71 66 61 59 56 55
152 159 157 155 152 148 145 141 139 136 134 131 129 127 125 122 118 115 113 110 106 103 101 99 98 97 96 95 92 89 86 85 84 77 63 37 56 71 67 61 59 57 55
153 156 156 155 152 149 146 144 142 139 136 134 132 130 128 125 121 118 114 111 109 107 105 103 102 100 99 96 91 88 88 87 86 77 52 35 40 67 65 61 59 56 54
153 154 157 155 152 150 148 146 144 142 140 138 135 133 131 127 124 121 117 115 113 111 109 107 105 105 101 95 91 89 88 88 86 72 51 38 35 67 66 61 59 57 53
151 153 158 155 152 151 150 149 147 145 143 140 138 136 133 130 126 122 121 120 118 115 113 111 109 106 103 98 93 90 89 89 80 63 51 38 40 68 68 62 60 58 55
151 154 158 156 154 153 152 151 149 147 145 143 141 139 137 133 129 126 124 124 123 121 118 115 112 109 105 99 94 92 92 91 81 64 52 38 58 69 66 63 63 60 58
152 155 158 157 155 155 154 153 151 150 148 146 145 142 140 137 134 132 130 128 125 121 119 116 114 111 108 101 94 93 95 90 82 71 56 40 71 70 69 66 63 61 59
152 155 157 157 157 157 156 155 154 153 151 150 148 145 142 141 139 137 134 131 127 125 122 120 117 115 109 100 94 92 93 92 88 78 64 46 74 74 72 68 65 63 61
153 156 155 154 154 155 156 156 155 154 153 152 149 144 143 144 142 140 137 136 132 130 127 124 121 116 108 99 94 93 95 91 82 75 52 70 78 77 73 70 67 66 63
161 162 157 154 153 152 153 157 155 153 153 150 147 145 140 132 131 136 140 140 138 136 133 130 127 119 106 94 92 94 93 86 89 74 48 84 82 80 77 74 72 69 64
169 168 163 159 156 155 158 154 153 151 149 144 144 141 132 130 135 139 148 147 146 143 139 138 136 122 94 72 79 89 91 100 93 82 81 90 84 83 82 80 75 71 66
170 169 168 164 161 160 156 155 153 147 146 146 146 144 140 135 138 135 140 145 142 139 125 128 110 91 97 105 97 100 110 105 106 85 89 97 90 87 86 84 79 72 66
171 173 169 167 166 164 159 161 157 155 156 157 158 153 147 144 147 149 147 147 143 139 142 126 125 137 131 131 121 120 119 120 128 119 113 108 99 93 90 87 80 74 66
174 174 173 171 170 167 163 166 165 164 165 164 162 162 156 155 161 161 161 159 163 159 158 155 159 159 149 136 126 129 132 133 140 139 118 118 112 109 98 91 80 67 61
177 176 174 175 173 170 171 172 169 169 168 168 169 170 165 164 166 166 166 169 176 175 170 164 165 159 153 135 125 128 136 144 147 152 153 133 136 134 120 102 75 45 41
179 177 176 177 176 175 175 175 172 173 172 175 176 174 171 170 170 169 169 175 182 174 163 150 145 135 132 121 116 128 141 159 164 167 168 168 222 196 198 196 253 328 331
177 177 178 179 178 179 178 177 175 177 177 180 178 177 176 175 172 167 170 180 177 162 154 149 144 130 127 125 132 149 156 171 184 188 182 187 198 243 248 245 255 279 292
181 179 179 180 180 181 178 176 175 177 181 182 180 179 180 179 175 169 173 177 169 157 157 159 147 140 143 149 159 167 201 200 204 193 197 202 205 210 230 256 256 267 281
184 182 181 180 180 178 175 171 172 178 183 183 184 182 179 180 176 171 170 173 165 159 161 157 149 139 146 155 133 59 295 264 227 213 216 212 212 214 213 233 262 274 270
185 184 183 181 179 176 178 180 182 186 185 186 187 183 182 180 177 175 173 171 170 170 170 161 147 146 148 134 95 9 335 328 267 239 226 218 228 227 218 224 233 245 275
188 188 186 185 182 183 186 187 184 176 179 181 182 185 185 182 180 181 175 176 174 167 166 167 152 147 161 155 136 115 331 327 313 278 245 228 235 238 238 233 233 236 244
191 190 189 189 186 187 183 171 154 146 150 175 189 191 191 186 183 183 179 176 177 174 178 179 169 161 170 191 165 150 163 228 285 305 270 249 241 239 249 246 240 239 239
194 192 191 189 188 187 180 178 177 182 188 193 187 186 186 187 185 184 180 179 179 180 180 183 178 168 160 179 198 193 174 165 174 286 305 287 262 248 249 251 250 249 246
194 191 191 190 189 187 185 185 186 192 194 175 168 176 184 189 188 186 183 183 183 185 185 183 178 178 173 174 177 170 169 163 168 179 262 291 296 264 246 245 248 254 255
194 190 189 188 190 187 187 188 190 191 183 172 178 184 186 187 190 191 187 187 188 187 187 186 183 182 184 179 178 173 169 175 191 183 219 250 269 280 268 249 243 248 256